Find Starlink 35369

NORAD ID: 68705 Int'l Des: 2026-081 Owner: SPXS Country: US Constellation: starlink operational
LEOCIRCULAR

当前视图

正在加载3D地球...

关于 Starlink 35369

正在加载描述...

即将过境

Passes for default location (London). Set your location on the main map for personalized predictions.

高度历史

Loading altitude history...

两行轨道根数

1 68705U 26081G 26150.81408905 .00028693 00000-0 83020-3 0 9996
2 68705 53.1610 12.8349 0001030 113.3911 246.7200 15.35404510 7314
Epoch: May 30, 2026 • Age: 9 hours

当前状态

高度 475.9 km
速度 7.63 km/s
星下点 -46.41°S, 72.23°W
发射日期 Apr 14, 2026
运行时间 0.1 years
类型 internet

技术详情

分类 Payload
质量 575.00 kg
干质量 530.00 kg
总质量 575.00 kg
长度 0.30 m
直径 4.10 m
跨度 29.00 m
形状 Box + pan
制造商 SPXS
平台类型 Starlink V2MO
阶段状态 In Orbit
所有者/国家 SPXS/US

Most Searched